Location: Newark
(38.8667°N, 6.9667°W)
Time: 21:07:19
(UTC+00:00)

OTV 5 (USA 277) - Visible Passes

Search period start: 20 October 2019 00:00
Search period end: 30 October 2019 00:00
Orbit: 310 x 324 km, 54.5° (Epoch: 17 October)

Date Brightness Start Highest point End Pass type
(mag) Time Alt. Az. Time Alt. Az. Time Alt. Az.
20 Oct ? 05:05:03 33° NNE 05:05:19 34° NE 05:07:51 10° ESE visible
21 Oct ? 05:19:48 72° WSW 05:19:54 74° SW 05:22:37 10° SE visible
22 Oct ? 05:34:41 21° SW 05:34:41 21° SW 05:36:31 10° S visible
26 Oct ? 19:40:10 10° SW 19:40:11 10° SW 19:40:11 10° SW visible
27 Oct ? 18:21:35 10° SSE 18:23:22 16° SE 18:24:02 15° ESE visible
28 Oct ? 18:35:06 10° SSW 18:37:44 49° SE 18:38:40 31° ENE visible
29 Oct ? 18:49:38 10° WSW 18:52:16 46° NW 18:53:10 31° NNE visible
